Home   Weather   Kitakyushu   Past weeks
Flag for Japan

Past Weather in Kitakyushu, Japan — Yesterday and Last 2 Weeks

Now
64 °F

Passing clouds.


Feels Like: 64 °F
Forecast: 71 / 59 °F
Wind: 8 mph from Northeast

Location: Kitakyushu Airport

Current Time: Oct 17, 2019 at 7:23:54 am

Latest Report: Oct 17, 2019 at 6:00 am


Visibility: N/A

Pressure: 30.15 "Hg

Humidity: 73%

Dew Point: 55 °F

Location of KitakyushuLocation

Past Weather in Kitakyushu — Graph

°F

Kitakyushu Temperature Yesterday

Maximum temperature yesterday: 68 °F (at 1:00 pm)
Minimum temperature yesterday: 59 °F (at 6:00 am)
Average temperature yesterday: 64 °F

High & Low Weather Summary for the Past Weeks

 TemperatureHumidityPressure
High84 °F (Oct 3, 10:00 am)94% (Oct 9, 5:00 am)30.30 "Hg (Oct 9, 5:00 am)
Low59 °F (Oct 16, 6:00 am)44% (Oct 9, 12:00 pm)29.65 "Hg (Oct 12, 3:00 am)
Average71 °F71%29.97 "Hg
* Reported Oct 2 6:00 am — Oct 17 6:00 am, Kitakyushu. Weather by CustomWeather, © 2019

Note: Actual official high and low records may vary slightly from our data, if they occured in-between our weather recording intervals... More about our weather records

Advertising

Kitakyushu Weather History for the Previous 24 Hours

Scroll right to see more
 ConditionsComfort  
Time TempWeatherWind HumidityBarometerVisibility
6:00 am
Thu, Oct 17
64 °FPassing clouds.8 mph73%30.15 "HgN/A
5:00 am61 °FPassing clouds.8 mph83%30.15 "HgN/A
4:00 am63 °FPassing clouds.8 mph73%30.15 "HgN/A
3:00 am63 °FPassing clouds.8 mph73%30.18 "HgN/A
2:00 am61 °FPassing clouds.8 mph83%30.18 "HgN/A
1:00 am61 °FPassing clouds.8 mph83%30.18 "HgN/A
12:00 am63 °FPassing clouds.8 mph77%30.21 "HgN/A
11:00 pm
Wed, Oct 16
63 °FPassing clouds.9 mph77%30.18 "HgN/A
10:43 pm63 °FClear.12 mph73%30.21 "Hg10 mi
10:00 pm63 °FClear.5 mph77%30.21 "Hg10 mi
9:00 pm64 °FClear.7 mph68%30.18 "Hg10 mi
8:00 pm64 °FPassing clouds.9 mph64%30.18 "HgN/A
7:00 pm64 °FClear.12 mph64%30.18 "Hg10 mi
6:21 pm63 °FClear.12 mph68%30.18 "Hg10 mi
6:00 pm64 °FClear.1 mph56%30.18 "Hg10 mi
5:00 pm66 °FPassing clouds.3 mph52%30.18 "HgN/A
4:00 pm66 °FPassing clouds.6 mph52%30.18 "HgN/A
3:00 pm68 °FSunny.7 mph49%30.18 "Hg10 mi
2:00 pm68 °FPassing clouds.7 mph49%30.18 "HgN/A
1:00 pm68 °FPassing clouds.3 mph46%30.21 "HgN/A
12:00 pm66 °FPassing clouds.6 mph49%30.24 "HgN/A
11:00 am66 °FPassing clouds.6 mph46%30.24 "HgN/A
10:00 am64 °FPassing clouds.9 mph46%30.27 "HgN/A
9:00 am64 °FPassing clouds.13 mph49%30.27 "HgN/A
8:00 am63 °FPassing clouds.16 mph49%30.27 "HgN/A
7:00 am61 °FPassing clouds.16 mph55%30.27 "HgN/A
Weather by CustomWeather, © 2019

See weather overview